When you browse on this site, cookies collect data to enhance your experience and personalize the content and advertising you see.
Visit our Privacy Policy to learn more. By continuing to use the site, you agree to this use of cookies and data.
  • In Austria
  • List of Countries
  • For 7 days
  • Water Temperature
  • Weather Map
  • News
  • Weather Widgets
  • user-avatar
    Login

    Hourly Weather Coimbra

    Today, 30 March, Monday

    Time Temperature Precipitation Wind Pressure Humidity
    00:00 +11°C° 0 mm 1 mps 753 mmHg 87%
    01:00 +11°C° 0 mm 1 mps 753 mmHg 86%
    02:00 +11°C° 0 mm 1 mps 753 mmHg 86%
    03:00 +11°C° 0 mm 1 mps 753 mmHg 84%
    04:00 +10°C° 0 mm 2 mps 752 mmHg 81%
    05:00 +10°C° 0 mm 2 mps 752 mmHg 79%
    06:00 +10°C° 0 mm 3 mps 752 mmHg 74%
    07:00 +11°C° 0 mm 4 mps 752 mmHg 70%
    08:00 +12°C° 0 mm 4 mps 752 mmHg 65%
    09:00 +12°C° 0 mm 5 mps 752 mmHg 62%
    10:00 +13°C° 0 mm 5 mps 752 mmHg 59%
    11:00 +14°C° 0 mm 5 mps 752 mmHg 56%
    12:00 +14°C° 0 mm 5 mps 751 mmHg 55%
    13:00 +14°C° 0 mm 4 mps 750 mmHg 54%
    14:00 +15°C° 0 mm 4 mps 750 mmHg 53%
    15:00 +13°C° 0.1 mm 4 mps 749 mmHg 58%
    16:00 +12°C° 0.1 mm 3 mps 749 mmHg 63%
    17:00 +11°C° 0.1 mm 3 mps 748 mmHg 69%
    18:00 +10°C° 0.5 mm 3 mps 748 mmHg 73%
    19:00 +10°C° 0.5 mm 3 mps 749 mmHg 78%
    20:00 +9°C° 0.5 mm 3 mps 749 mmHg 82%
    21:00 +7°C° 0.2 mm 4 mps 749 mmHg 82%
    22:00 +6°C° 0.2 mm 4 mps 748 mmHg 82%
    23:00 +6°C° 0.2 mm 5 mps 748 mmHg 81%

    Tomorrow, 31 March, Tuesday

    Time Temperature Precipitation Wind Pressure Humidity
    00:00 +5°C° 0 mm 5 mps 748 mmHg 80%
    01:00 +5°C° 0 mm 4 mps 747 mmHg 78%
    02:00 +5°C° 0 mm 4 mps 747 mmHg 77%
    03:00 +4°C° 0.1 mm 4 mps 747 mmHg 79%
    04:00 +4°C° 0.1 mm 4 mps 746 mmHg 81%
    05:00 +4°C° 0.1 mm 4 mps 746 mmHg 83%
    06:00 +5°C° 0 mm 3 mps 746 mmHg 80%
    07:00 +5°C° 0 mm 3 mps 746 mmHg 78%
    08:00 +7°C° 0 mm 3 mps 746 mmHg 75%
    09:00 +7°C° 0.1 mm 3 mps 746 mmHg 76%
    10:00 +8°C° 0.1 mm 2 mps 746 mmHg 76%
    11:00 +9°C° 0.1 mm 2 mps 746 mmHg 76%
    12:00 +10°C° 0 mm 2 mps 746 mmHg 73%
    13:00 +12°C° 0 mm 2 mps 745 mmHg 71%
    14:00 +14°C° 0 mm 2 mps 745 mmHg 68%
    15:00 +13°C° 0.4 mm 2 mps 745 mmHg 73%
    16:00 +13°C° 0.4 mm 2 mps 745 mmHg 79%
    17:00 +12°C° 0.4 mm 2 mps 744 mmHg 85%
    18:00 +10°C° 2.6 mm 2 mps 745 mmHg 89%
    19:00 +10°C° 2.6 mm 2 mps 745 mmHg 93%
    20:00 +9°C° 2.6 mm 2 mps 746 mmHg 97%
    21:00 +9°C° 1.7 mm 2 mps 746 mmHg 97%
    22:00 +9°C° 1.7 mm 2 mps 747 mmHg 97%
    23:00 +9°C° 1.7 mm 2 mps 747 mmHg 97%

    Day after tomorrow, 1 April, Wednesday

    Time Temperature Precipitation Wind Pressure Humidity
    00:00 +9°C° 0.2 mm 2 mps 748 mmHg 96%
    01:00 +9°C° 0.2 mm 2 mps 748 mmHg 95%
    02:00 +9°C° 0.2 mm 2 mps 748 mmHg 94%
    03:00 +9°C° 0 mm 2 mps 749 mmHg 93%
    04:00 +8°C° 0 mm 2 mps 750 mmHg 92%
    05:00 +9°C° 0 mm 1 mps 750 mmHg 91%
    06:00 +9°C° 0 mm 2 mps 751 mmHg 86%
    07:00 +9°C° 0 mm 2 mps 751 mmHg 81%
    08:00 +10°C° 0 mm 2 mps 752 mmHg 76%
    09:00 +12°C° 0 mm 2 mps 752 mmHg 69%
    10:00 +13°C° 0 mm 2 mps 752 mmHg 61%
    11:00 +14°C° 0 mm 2 mps 753 mmHg 54%
    12:00 +15°C° 0 mm 2 mps 752 mmHg 51%
    13:00 +15°C° 0 mm 2 mps 752 mmHg 49%
    14:00 +16°C° 0 mm 1 mps 752 mmHg 47%
    15:00 +15°C° 0.1 mm 1 mps 752 mmHg 54%
    16:00 +14°C° 0.1 mm 1 mps 752 mmHg 61%
    17:00 +13°C° 0.1 mm 1 mps 752 mmHg 68%
    18:00 +12°C° 0 mm 1 mps 752 mmHg 72%
    19:00 +11°C° 0 mm 1 mps 752 mmHg 77%
    20:00 +9°C° 0 mm 1 mps 753 mmHg 82%
    21:00 +9°C° 0 mm 1 mps 753 mmHg 83%
    22:00 +8°C° 0 mm 1 mps 753 mmHg 84%
    23:00 +8°C° 0 mm 1 mps 753 mmHg 85%

    2 April, Thursday

    Time Temperature Precipitation Wind Pressure Humidity
    00:00 +8°C° 0 mm 1 mps 753 mmHg 86%
    01:00 +8°C° 0 mm 1 mps 753 mmHg 87%
    02:00 +7°C° 0 mm 1 mps 753 mmHg 87%
    03:00 +7°C° 0 mm 1 mps 753 mmHg 88%
    04:00 +7°C° 0 mm 1 mps 752 mmHg 88%
    05:00 +6°C° 0 mm 1 mps 752 mmHg 88%
    06:00 +9°C° 0 mm 1 mps 753 mmHg 80%
    07:00 +11°C° 0 mm 1 mps 753 mmHg 71%
    08:00 +13°C° 0 mm 0 mps 753 mmHg 63%
    09:00 +15°C° 0 mm 1 mps 753 mmHg 57%
    10:00 +18°C° 0 mm 1 mps 753 mmHg 52%
    11:00 +19°C° 0 mm 2 mps 753 mmHg 46%
    12:00 +18°C° 0 mm 2 mps 753 mmHg 48%
    13:00 +18°C° 0 mm 3 mps 753 mmHg 50%
    14:00 +18°C° 0 mm 3 mps 752 mmHg 52%
    15:00 +17°C° 0 mm 3 mps 752 mmHg 59%
    16:00 +16°C° 0 mm 3 mps 752 mmHg 66%
    17:00 +14°C° 0 mm 3 mps 752 mmHg 73%
    18:00 +13°C° 0 mm 2 mps 753 mmHg 80%
    19:00 +11°C° 0 mm 1 mps 753 mmHg 87%
    20:00 +10°C° 0 mm 1 mps 753 mmHg 95%
    21:00 +10°C° 0 mm 1 mps 753 mmHg 94%
    22:00 +9°C° 0 mm 1 mps 753 mmHg 94%
    23:00 +9°C° 0 mm 1 mps 754 mmHg 93%

    3 April, Friday

    Time Temperature Precipitation Wind Pressure Humidity
    00:00 +9°C° 0 mm 1 mps 753 mmHg 93%
    01:00 +9°C° 0 mm 1 mps 753 mmHg 92%
    02:00 +9°C° 0 mm 1 mps 753 mmHg 92%
    03:00 +9°C° 0 mm 1 mps 753 mmHg 91%
    04:00 +8°C° 0 mm 2 mps 753 mmHg 90%
    05:00 +8°C° 0 mm 2 mps 752 mmHg 89%
    06:00 +10°C° 0 mm 2 mps 753 mmHg 81%
    07:00 +13°C° 0 mm 2 mps 753 mmHg 72%
    08:00 +15°C° 0 mm 2 mps 753 mmHg 64%
    09:00 +17°C° 0 mm 2 mps 753 mmHg 57%
    10:00 +19°C° 0 mm 2 mps 752 mmHg 50%
    11:00 +21°C° 0 mm 3 mps 752 mmHg 43%
    12:00 +21°C° 0 mm 3 mps 752 mmHg 41%
    13:00 +22°C° 0 mm 3 mps 751 mmHg 40%
    14:00 +22°C° 0 mm 3 mps 751 mmHg 39%
    15:00 +21°C° 0 mm 3 mps 750 mmHg 45%
    16:00 +20°C° 0 mm 2 mps 750 mmHg 51%
    17:00 +19°C° 0 mm 2 mps 750 mmHg 57%
    18:00 +17°C° 0 mm 2 mps 750 mmHg 61%
    19:00 +16°C° 0 mm 2 mps 750 mmHg 65%
    20:00 +14°C° 0 mm 2 mps 750 mmHg 69%
    21:00 +15°C° 0 mm 2 mps 750 mmHg 69%
    22:00 +15°C° 0 mm 2 mps 750 mmHg 68%
    23:00 +15°C° 0 mm 2 mps 750 mmHg 67%

    4 April, Saturday

    Time Temperature Precipitation Wind Pressure Humidity
    00:00 +14°C° 0 mm 2 mps 750 mmHg 68%
    01:00 +13°C° 0 mm 3 mps 750 mmHg 69%
    02:00 +13°C° 0 mm 3 mps 749 mmHg 71%
    03:00 +12°C° 0 mm 3 mps 750 mmHg 72%
    04:00 +12°C° 0 mm 3 mps 750 mmHg 73%
    05:00 +11°C° 0 mm 3 mps 750 mmHg 74%
    06:00 +13°C° 0 mm 3 mps 750 mmHg 68%
    07:00 +14°C° 0 mm 4 mps 750 mmHg 62%
    08:00 +17°C° 0 mm 4 mps 750 mmHg 56%
    09:00 +16°C° 0 mm 5 mps 751 mmHg 54%
    10:00 +17°C° 0 mm 5 mps 751 mmHg 53%
    11:00 +19°C° 0 mm 5 mps 751 mmHg 51%
    12:00 +17°C° 0 mm 5 mps 751 mmHg 56%
    13:00 +16°C° 0 mm 5 mps 751 mmHg 61%
    14:00 +14°C° 0 mm 4 mps 751 mmHg 66%
    15:00 +14°C° 0.1 mm 4 mps 751 mmHg 71%
    16:00 +14°C° 0.1 mm 3 mps 751 mmHg 76%
    17:00 +14°C° 0.1 mm 2 mps 751 mmHg 81%
    18:00 +14°C° 0.1 mm 2 mps 752 mmHg 83%
    19:00 +14°C° 0.1 mm 2 mps 752 mmHg 85%
    20:00 +14°C° 0.1 mm 2 mps 752 mmHg 87%
    21:00 +14°C° 0.1 mm 2 mps 753 mmHg 87%
    22:00 +14°C° 0.1 mm 2 mps 753 mmHg 88%
    23:00 +14°C° 0.1 mm 2 mps 753 mmHg 88%
    Show more